FW6366 Weather Reports


time (UTC)temp
C
wind
direction
speed
KPH
gust
KPH
rain 1hr
cm
rain 24hr
cm
rain mn
cm
humidity
%
barometer
mb
20260504130603 12 271 6.4 22.5 0.00 0.00 0.00 52 1008.3
20260504130103 12 130 3.2 20.9 0.00 0.00 0.00 51 1008.4
20260504110559 8 0 0.0 6.4 0.00 0.00 0.00 79 1008.7
20260504110104 8 134 0.0 6.4 0.00 0.00 0.00 80 1008.6
20260504100602 7 295 0.0 4.8 0.00 0.00 0.00 81 1008.6
20260504081559 7 248 1.6 8.0 0.00 0.00 0.00 79 1009.2
20260504081058 7 207 1.6 12.9 0.00 0.00 0.00 79 1009.1
20260504080557 7 173 1.6 12.9 0.00 0.00 0.00 79 1009.1
20260504070106 7 176 3.2 11.3 0.00 0.00 0.00 78 1009.1
20260504050600 7 191 4.8 12.9 0.00 0.00 0.00 70 1009.7
20260504045559 7 153 4.8 9.7 0.00 0.00 0.00 67 1009.5
20260504045058 8 192 3.2 20.9 0.00 0.00 0.00 68 1009.7
20260504044605 8 181 3.2 20.9 0.00 0.00 0.00 67 1009.7
20260504044059 7 243 8.0 20.9 0.00 0.00 0.00 69 1009.8
20260504043559 7 168 3.2 16.1 0.00 0.00 0.00 69 1009.8
20260504043059 7 280 6.4 16.1 0.00 0.00 0.00 70 1009.9
20260504042559 6 183 1.6 9.7 0.00 0.00 0.00 73 1009.8
20260504042058 6 165 1.6 9.7 0.00 0.00 0.00 72 1009.8
20260504041600 5 174 3.2 6.4 0.00 0.00 0.00 72 1009.8
20260504041058 5 197 1.6 6.4 0.00 0.00 0.00 76 1009.8
20260504040602 5 0 0.0 4.8 0.00 0.00 0.00 78 1009.8
20260504040058 4 0 0.0 12.9 0.00 0.00 0.00 81 1009.8
20260504035559 3 198 0.0 12.9 0.00 0.00 0.00 81 1009.7
20260504035059 3 172 3.2 12.9 0.00 0.00 0.00 81 1009.8
20260504034614 3 198 0.0 6.4 0.00 0.00 0.00 81 1009.7
20260504034059 3 241 3.2 6.4 0.00 0.00 0.00 81 1009.7
20260504033559 3 277 0.0 4.8 0.00 0.00 0.00 81 1009.7
20260504033100 3 0 0.0 6.4 0.00 0.00 0.00 81 1009.7
20260504032559 3 0 1.6 6.4 0.00 0.00 0.00 81 1009.7
20260504032059 2 230 0.0 3.2 0.00 0.00 0.00 81 1009.7
20260504031559 2 0 0.0 3.2 0.00 0.00 0.00 80 1009.8
20260504031059 2 0 0.0 3.2 0.00 0.00 0.00 81 1009.7
20260504030600 2 0 0.0 3.2 0.00 0.00 0.00 81 1009.6
20260504030100 2 0 0.0 4.8 0.00 0.00 0.00 82 1009.6
20260504025558 2 262 0.0 4.8 0.00 0.00 0.00 82 1009.7
20260504025059 1 297 0.0 3.2 0.00 0.00 0.00 84 1009.7
20260504024559 1 304 0.0 3.2 0.00 0.00 0.00 84 1009.6
20260504024059 1 0 0.0 3.2 0.00 0.00 0.00 83 1009.6
20260504023559 1 0 0.0 3.2 0.00 0.00 0.00 83 1009.6
20260504023100 1 157 0.0 3.2 0.00 0.00 0.00 82 1009.6
20260504022559 1 0 0.0 4.8 0.00 0.00 0.00 83 1009.7
20260504022058 1 0 0.0 4.8 0.00 0.00 0.00 83 1009.8
20260504021601 1 0 0.0 3.2 0.00 0.00 0.00 83 1009.9
20260504021057 1 165 0.0 3.2 0.00 0.00 0.00 83 1009.9
20260504020602 1 0 0.0 3.2 0.00 0.00 0.00 82 1009.9
20260504020059 2 0 0.0 3.2 0.00 0.00 0.00 81 1009.9
20260504015559 2 202 0.0 4.8 0.00 0.00 0.00 81 1009.9
20260504015101 2 153 0.0 4.8 0.00 0.00 0.00 81 1009.9
20260504014618 2 0 0.0 4.8 0.00 0.00 0.00 80 1010.0
20260504014100 2 169 0.0 4.8 0.00 0.00 0.00 79 1010.0
20260504013559 2 0 0.0 4.8 0.00 0.00 0.00 78 1010.0
20260504013104 2 0 0.0 4.8 0.00 0.00 0.00 78 1009.8
20260504012557 2 0 1.6 4.8 0.00 0.00 0.00 78 1009.7
20260504012059 2 0 0.0 4.8 0.00 0.00 0.00 78 1009.7
20260504011603 2 0 0.0 4.8 0.00 0.00 0.00 78 1009.6
20260504011102 2 176 0.0 4.8 0.00 0.00 0.00 78 1009.5
20260504010559 2 152 0.0 4.8 0.00 0.00 0.00 78 1009.5
20260504010100 3 0 0.0 3.2 0.00 0.00 0.00 77 1009.4
20260504005558 3 0 0.0 1.6 0.00 0.00 0.00 75 1009.2
20260504005059 3 0 0.0 1.6 0.00 0.00 0.00 77 1009.3
20260504004559 3 0 0.0 3.2 0.00 0.00 0.00 76 1009.1
20260504004057 3 181 0.0 3.2 0.00 0.00 0.00 76 1009.0
20260504003603 4 292 1.6 3.2 0.00 0.00 0.00 74 1009.1
20260504003101 4 286 0.0 3.2 0.00 0.00 0.00 75 1009.0
20260504002558 4 0 0.0 3.2 0.00 0.00 0.00 73 1008.9
20260504002059 5 283 1.6 4.8 0.00 0.00 0.00 72 1008.9
20260504001616 5 305 1.6 4.8 0.00 0.00 0.00 70 1008.8
20260504001059 5 307 3.2 4.8 0.00 0.00 0.00 68 1008.7
20260504000559 5 302 1.6 4.8 0.00 0.00 0.00 68 1008.6
20260504000100 5 300 1.6 4.8 0.00 0.00 0.00 68 1008.6
20260503235600 6 301 0.0 6.4 0.00 0.00 0.00 68 1008.6
20260503235059 6 0 3.2 6.4 0.00 0.00 0.00 65 1008.5
20260503234600 6 301 4.8 6.4 0.00 0.00 0.00 63 1008.3
20260503234059 7 279 3.2 6.4 0.00 0.00 0.00 62 1008.3
20260503233559 7 302 3.2 6.4 0.00 0.00 0.00 61 1008.3
20260503233103 7 300 1.6 4.8 0.00 0.00 0.00 62 1008.2
20260503232558 7 307 1.6 6.4 0.00 0.00 0.00 62 1008.1
20260503232058 7 271 1.6 6.4 0.00 0.00 0.00 60 1008.2
20260503231559 7 0 1.6 4.8 0.00 0.00 0.00 63 1008.1
20260503231101 7 297 3.2 4.8 0.00 0.00 0.00 60 1008.0
20260503230601 7 306 1.6 4.8 0.00 0.00 0.00 58 1008.0
20260503230100 7 299 1.6 4.8 0.00 0.00 0.00 57 1008.0
20260503225557 7 275 1.6 6.4 0.00 0.00 0.00 56 1008.1
20260503225101 7 297 1.6 6.4 0.00 0.00 0.00 59 1008.0
20260503224559 8 302 1.6 6.4 0.00 0.00 0.00 56 1008.1
20260503224059 8 325 1.6 6.4 0.00 0.00 0.00 52 1007.9
20260503223558 8 0 0.0 9.7 0.00 0.00 0.00 53 1008.1
20260503223059 8 285 1.6 12.9 0.00 0.00 0.00 52 1008.1
20260503222558 9 63 3.2 16.1 0.00 0.00 0.00 42 1008.1
20260503222058 9 348 1.6 16.1 0.00 0.00 0.00 46 1008.1
20260503221558 10 345 6.4 16.1 0.00 0.00 0.00 41 1008.2
20260503221059 10 8 4.8 17.7 0.00 0.00 0.00 41 1008.2
20260503220559 10 340 4.8 17.7 0.00 0.00 0.00 41 1008.2
20260503220104 10 56 4.8 17.7 0.00 0.00 0.00 42 1008.1
20260503215601 10 1 3.2 14.5 0.00 0.00 0.00 42 1008.1
20260503215057 10 0 3.2 22.5 0.00 0.00 0.00 45 1008.1
20260503214559 10 100 3.2 25.7 0.00 0.00 0.00 43 1008.1
20260503214104 10 1 4.8 25.7 0.00 0.00 0.00 42 1008.1
20260503213603 10 72 6.4 25.7 0.00 0.00 0.00 41 1008.1
20260503213111 10 79 3.2 16.1 0.00 0.00 0.00 44 1008.1
20260503212600 10 20 3.2 11.3 0.00 0.00 0.00 44 1008.1
20260503212059 10 63 1.6 11.3 0.00 0.00 0.00 47 1008.0
20260503211559 10 224 3.2 14.5 0.00 0.00 0.00 47 1008.1
20260503211057 10 341 1.6 17.7 0.00 0.00 0.00 48 1007.9
20260503210559 10 59 3.2 17.7 0.00 0.00 0.00 44 1007.9
20260503210105 10 49 3.2 12.9 0.00 0.00 0.00 43 1007.9
20260503205559 10 49 4.8 12.9 0.00 0.00 0.00 45 1007.9
20260503205103 10 343 1.6 12.9 0.00 0.00 0.00 49 1008.0
20260503204601 10 27 3.2 20.9 0.00 0.00 0.00 46 1008.1
20260503204102 10 50 8.0 20.9 0.00 0.00 0.00 46 1008.1
20260503203600 10 24 0.0 17.7 0.00 0.00 0.00 48 1008.1
20260503203104 9 311 3.2 17.7 0.00 0.00 0.00 49 1008.3
20260503202600 10 331 4.8 17.7 0.00 0.00 0.00 45 1008.4
20260503202100 10 30 3.2 17.7 0.00 0.00 0.00 47 1008.2
20260503201600 9 25 4.8 14.5 0.00 0.00 0.00 45 1008.4
20260503201100 9 193 3.2 14.5 0.00 0.00 0.00 48 1008.4
20260503200604 9 178 1.6 11.3 0.00 0.00 0.00 48 1008.3
20260503200105 9 79 0.0 8.0 0.00 0.00 0.00 47 1008.3
20260503195559 9 226 1.6 9.7 0.00 0.00 0.00 46 1008.5
20260503195059 9 0 0.0 12.9 0.00 0.00 0.00 46 1008.6
20260503194600 9 44 3.2 12.9 0.00 0.00 0.00 47 1008.6
20260503194103 9 340 3.2 17.7 0.00 0.00 0.00 46 1008.6
20260503193558 9 11 8.0 17.7 0.00 0.00 0.00 46 1008.8
20260503193112 9 68 3.2 17.7 0.00 0.00 0.00 46 1008.8
20260503192558 9 304 4.8 17.7 0.00 0.00 0.00 47 1008.8
20260503192100 9 60 4.8 19.3 0.00 0.00 0.00 46 1008.8
20260503191609 9 32 1.6 19.3 0.00 0.00 0.00 51 1008.8
20260503191057 9 354 6.4 20.9 0.00 0.00 0.00 46 1008.9
20260503190601 9 338 4.8 20.9 0.00 0.00 0.00 44 1008.8
20260503190101 9 132 3.2 19.3 0.00 0.00 0.00 49 1008.8
20260503185600 9 338 1.6 19.3 0.00 0.00 0.00 48 1008.8
20260503185102 9 75 8.0 22.5 0.00 0.00 0.00 45 1008.8
20260503184611 9 0 6.4 22.5 0.00 0.00 0.00 48 1008.8
20260503184100 8 73 1.6 12.9 0.00 0.00 0.00 48 1009.1
20260503183557 8 18 1.6 14.5 0.00 0.00 0.00 49 1009.0
20260503183110 8 347 1.6 14.5 0.00 0.00 0.00 49 1009.1
20260503182603 8 20 1.6 11.3 0.00 0.00 0.00 49 1009.1
20260503182059 8 356 4.8 12.9 0.00 0.00 0.00 47 1009.1
20260503181609 8 71 1.6 17.7 0.00 0.00 0.00 49 1009.1
20260503181058 8 331 4.8 17.7 0.00 0.00 0.00 47 1009.1
20260503180559 8 5 3.2 16.1 0.00 0.00 0.00 47 1009.1
20260503180057 8 0 6.4 16.1 0.00 0.00 0.00 48 1009.1
20260503175601 8 54 6.4 17.7 0.00 0.05 0.00 46 1009.1
20260503175101 8 254 6.4 17.7 0.00 0.05 0.00 48 1009.2
20260503174600 8 58 1.6 16.1 0.00 0.05 0.00 49 1009.1
20260503174100 8 219 4.8 16.1 0.00 0.05 0.00 48 1009.0
20260503173600 8 0 3.2 20.9 0.00 0.05 0.00 46 1009.2
20260503173102 8 0 4.8 20.9 0.00 0.05 0.00 47 1009.1
20260503172600 8 53 8.0 20.9 0.00 0.05 0.00 50 1009.1
20260503172059 8 356 3.2 14.5 0.00 0.05 0.00 50 1009.2
20260503171600 8 224 1.6 8.0 0.00 0.05 0.00 50 1009.1
20260503171100 8 69 0.0 8.0 0.00 0.05 0.00 52 1009.0
20260503170600 8 0 1.6 8.0 0.00 0.05 0.00 53 1009.0
20260503150600 8 21 6.4 17.7 0.00 0.13 0.00 53 1009.2